COSMOS 2392

导读

COSMOS 2392是俄罗斯(CIS)于2002年7月25日发射的军用卫星,隶属于俄罗斯"宇宙"(COSMOS)卫星系列。作为全球规模最大的卫星家族,"宇宙"系列以军用任务为主,涵盖侦察、技术试验等多元任务,COSMOS 2392延续了这一传统,承担军事空间相关任务。该卫星发射继承了苏联/俄罗斯长期航天技术积累,是独联体时代俄罗斯空间军事部署的重要组成部分,目前该卫星仍在轨运行,服务于俄罗斯国防空间任务。

基本信息
目录编号:
27470
目录名称:
COSMOS 2392
国际标识:
2002-037A
轨道中心:
EARTH
卫星名称:
COSMOS 2392
卫星全名:
--
卫星状态:
在轨 (已飞行8817 天)
发射日期:
2002-07-25 UTC
国别 :
俄罗斯(独联体) (CIS)
星等 :
--
该卫星已列入 空间交会检测服务 Space Conjunction Data Service (SCDS) ,当前飞行风险评估等级: 无高风险
轨道信息
数据来源 国际轨道数据 AOE轨道数据
星历时间 2026-09-14T05:26:36+0800
6小时前
查看轨道信息
2026-09-12T02:00:00+0800
2天前
查看轨道信息
半长轴 8028.658km 8028.668km
偏心率 0.0626047 0.062596
轨道倾角 63.396° 63.395°
近地点辐角 359.632° 359.625°
升交点赤经 231.368° 235.673°
平近点角 15.061° 62.736°
近地点 1147.889km 1147.968km
远地点 2153.153km 2153.094km
周期 119.323分钟 119.323分钟
每日圈数 12.068084 12.068063
详细信息
使用方式:
暂无
2D轨道图
3D轨道图
轨道高度分析图
轨道倾角分析图
轨道综合分析图
查看轨道综合分析图
交会数据列表
事件ID 空间交会对象 最接近时刻(TCA) 交会距离 交会风险概率(CRP) 交会风险指数(CRI) 操作
CDM_260914-074002-747002-842029
2026-09-14T
07:40:13+0000
2.161 km
极远距离
1.298007E-6 低风险 0.37
与全量物体交会距离演化趋势 订阅飞行安全评估服务
与全量物体交会风险概率演化趋势 订阅飞行安全评估服务